Location: Long Geng
(2.6167°N, 114.1333°E)
Time: 22:16:46
(UTC+00:00)

Ariane 44LP R/B - Pass Details

Date: 23 September 2021
Orbit: 477 x 17832 km, 3.6° (Epoch: 19 October)

Event Time Altitude Azimuth Distance (km) Brightness Sun altitude
Exits shadow 21:15:05 23° 270° (W) 1,728 5.2 -15.1°
Maximum altitude 21:18:25 87° 357° (N) 1,259 5.0 -14.3°
Drops below altitude 10° 21:37:30 10° 88° (E) 8,231 10.9 -9.5°
Sets 21:52:31 0° 88° (E) 12,676 13.1 -5.8°
